Back to catalog

STARLINK-36265

AliveCommunicationsVLEO
NORAD 67208·PAYLOAD·🇺🇸 United States

Launched Dec 17, 2025 from Vandenberg Space Force Base

Loading…

Next Passes (next 24 hours)

TLE

FreshSource: CelesTrak SupGP

Epoch: Sep 14, 2026, 16:02 UTC

1 67208C 25304S   26257.66854167 -.00023863  00000+0 -20000-2 0  2576
2 67208  70.0012  58.1024 0002798 273.1980 267.9906 14.98340421    17

Track STARLINK-36265 in real time with AllMySat

Download on the App Store